Time,TemperatureF,DewpointF,PressureIn,WindDirection,WindDirectionDegrees,WindSpeedMPH,WindSpeedGustMPH,Humidity,HourlyPrecipIn,Conditions,Clouds,dailyrainin,SoftwareType,DateUTC
2013-01-04 00:12:00,34.1,32.0,30.40,NE,39,0.0,1.0,90,0.00,,,0.00,weatherlink.com 1.10,2013-01-04 06:12:00,
2013-01-04 00:27:00,34.3,32.0,30.39,NE,39,0.0,2.0,90,0.00,,,0.00,weatherlink.com 1.10,2013-01-04 06:27:00,
2013-01-04 00:42:00,34.2,31.0,30.40,ENE,65,1.0,3.0,89,0.00,,,0.00,weatherlink.com 1.10,2013-01-04 06:42:00,
2013-01-04 00:57:00,34.9,31.0,30.40,ENE,77,2.0,3.0,87,0.00,,,0.00,weatherlink.com 1.10,2013-01-04 06:57:00,
2013-01-04 01:12:00,34.9,31.0,30.39,NE,53,2.0,3.0,87,0.00,,,0.00,weatherlink.com 1.10,2013-01-04 07:12:00,
2013-01-04 01:27:00,34.7,31.0,30.39,East,100,1.0,3.0,87,0.00,,,0.00,weatherlink.com 1.10,2013-01-04 07:27:00,
2013-01-04 01:42:00,34.2,31.0,30.38,East,82,1.0,2.0,88,0.00,,,0.00,weatherlink.com 1.10,2013-01-04 07:42:00,
2013-01-04 01:57:00,34.3,31.0,30.38,SE,129,0.0,3.0,89,0.00,,,0.00,weatherlink.com 1.10,2013-01-04 07:57:00,
2013-01-04 02:12:00,34.6,31.0,30.37,ENE,65,1.0,5.0,87,0.00,,,0.00,weatherlink.com 1.10,2013-01-04 08:12:00,
2013-01-04 02:27:00,34.7,31.0,30.37,NNE,17,1.0,5.0,87,0.00,,,0.00,weatherlink.com 1.10,2013-01-04 08:27:00,
2013-01-04 02:42:00,35.0,31.0,30.38,ENE,60,2.0,4.0,86,0.00,,,0.00,weatherlink.com 1.10,2013-01-04 08:42:00,
2013-01-04 02:57:00,34.7,31.0,30.38,NNE,32,1.0,3.0,86,0.00,,,0.00,weatherlink.com 1.10,2013-01-04 08:57:00,
2013-01-04 03:12:00,33.8,31.0,30.38,East,94,1.0,2.0,89,0.00,,,0.00,weatherlink.com 1.10,2013-01-04 09:12:00,
2013-01-04 03:27:00,33.4,31.0,30.38,East,79,0.0,2.0,89,0.00,,,0.00,weatherlink.com 1.10,2013-01-04 09:27:00,
2013-01-04 03:42:00,33.2,31.0,30.38,ENE,75,0.0,1.0,90,0.00,,,0.00,weatherlink.com 1.10,2013-01-04 09:42:00,
2013-01-04 03:57:00,32.9,31.0,30.38,East,91,0.0,2.0,91,0.00,,,0.00,weatherlink.com 1.10,2013-01-04 09:57:00,
2013-01-04 04:12:00,32.5,30.0,30.38,East,96,0.0,0.0,91,0.00,,,0.00,weatherlink.com 1.10,2013-01-04 10:12:00,
2013-01-04 04:27:00,32.4,30.0,30.38,ENE,58,0.0,2.0,92,0.00,,,0.00,weatherlink.com 1.10,2013-01-04 10:27:00,
2013-01-04 04:42:00,32.7,30.0,30.38,ENE,72,1.0,2.0,91,0.00,,,0.00,weatherlink.com 1.10,2013-01-04 10:42:00,
2013-01-04 04:57:00,32.9,31.0,30.38,ENE,68,1.0,3.0,91,0.00,,,0.00,weatherlink.com 1.10,2013-01-04 10:57:00,
2013-01-04 05:12:00,33.0,30.0,30.39,East,87,0.0,2.0,90,0.00,,,0.00,weatherlink.com 1.10,2013-01-04 11:12:00,
2013-01-04 05:27:00,33.2,31.0,30.39,East,85,2.0,2.0,90,0.00,,,0.00,weatherlink.com 1.10,2013-01-04 11:27:00,
2013-01-04 05:42:00,33.5,31.0,30.39,ENE,72,1.0,4.0,89,0.00,,,0.00,weatherlink.com 1.10,2013-01-04 11:42:00,
2013-01-04 05:57:00,33.7,31.0,30.39,ESE,106,2.0,4.0,88,0.00,,,0.00,weatherlink.com 1.10,2013-01-04 11:57:00,
2013-01-04 06:12:00,33.8,31.0,30.39,East,89,2.0,4.0,88,0.00,,,0.00,weatherlink.com 1.10,2013-01-04 12:12:00,
2013-01-04 06:27:00,34.1,31.0,30.40,NE,47,0.0,7.0,87,0.00,,,0.00,weatherlink.com 1.10,2013-01-04 12:27:00,
2013-01-04 06:42:00,34.0,31.0,30.42,East,82,2.0,3.0,87,0.00,,,0.00,weatherlink.com 1.10,2013-01-04 12:42:00,
2013-01-04 06:57:00,33.7,30.0,30.43,ESE,114,1.0,3.0,87,0.00,,,0.00,weatherlink.com 1.10,2013-01-04 12:57:00,
2013-01-04 07:12:00,33.3,30.0,30.43,East,79,0.0,1.0,88,0.00,,,0.00,weatherlink.com 1.10,2013-01-04 13:12:00,
2013-01-04 07:27:00,33.2,30.0,30.43,East,95,0.0,1.0,89,0.00,,,0.00,weatherlink.com 1.10,2013-01-04 13:27:00,
2013-01-04 07:42:00,34.3,31.0,30.44,ENE,76,1.0,4.0,88,0.00,,,0.00,weatherlink.com 1.10,2013-01-04 13:42:00,
2013-01-04 07:57:00,35.6,32.0,30.43,ENE,69,1.0,3.0,85,0.00,,,0.00,weatherlink.com 1.10,2013-01-04 13:57:00,
2013-01-04 08:13:00,37.1,32.0,30.44,ENE,73,1.0,7.0,82,0.00,,,0.00,weatherlink.com 1.10,2013-01-04 14:13:00,
2013-01-04 08:28:00,38.2,32.0,30.44,East,84,5.0,7.0,78,0.00,,,0.00,weatherlink.com 1.10,2013-01-04 14:28:00,
2013-01-04 08:43:00,38.8,32.0,30.43,East,94,3.0,8.0,75,0.00,,,0.00,weatherlink.com 1.10,2013-01-04 14:43:00,
2013-01-04 08:58:00,40.0,32.0,30.44,ENE,66,6.0,9.0,74,0.00,,,0.00,weatherlink.com 1.10,2013-01-04 14:58:00,
2013-01-04 09:13:00,41.9,33.0,30.44,ENE,68,6.0,7.0,71,0.00,,,0.00,weatherlink.com 1.10,2013-01-04 15:13:00,
2013-01-04 09:28:00,42.6,32.0,30.46,East,91,1.0,4.0,66,0.00,,,0.00,weatherlink.com 1.10,2013-01-04 15:28:00,
2013-01-04 09:43:00,43.5,32.0,30.46,ENE,65,4.0,7.0,65,0.00,,,0.00,weatherlink.com 1.10,2013-01-04 15:43:00,
2013-01-04 09:58:00,44.7,33.0,30.46,NW,322,3.0,7.0,63,0.00,,,0.00,weatherlink.com 1.10,2013-01-04 15:58:00,
2013-01-04 10:13:00,45.4,32.0,30.47,NE,48,1.0,3.0,61,0.00,,,0.00,weatherlink.com 1.10,2013-01-04 16:13:00,
2013-01-04 10:28:00,46.0,32.0,30.46,NW,323,0.0,4.0,59,0.00,,,0.00,weatherlink.com 1.10,2013-01-04 16:28:00,
2013-01-04 10:43:00,46.5,34.0,30.46,ENE,67,0.0,7.0,61,0.00,,,0.00,weatherlink.com 1.10,2013-01-04 16:43:00,
2013-01-04 10:58:00,47.2,32.0,30.47,ENE,66,3.0,5.0,57,0.00,,,0.00,weatherlink.com 1.10,2013-01-04 16:58:00,
2013-01-04 11:13:00,48.4,32.0,30.47,WSW,246,1.0,4.0,53,0.00,,,0.00,weatherlink.com 1.10,2013-01-04 17:13:00,
2013-01-04 11:28:00,49.3,32.0,30.45,West,280,0.0,5.0,52,0.00,,,0.00,weatherlink.com 1.10,2013-01-04 17:28:00,
2013-01-04 11:43:00,50.2,33.0,30.43,NE,49,4.0,8.0,51,0.00,,,0.00,weatherlink.com 1.10,2013-01-04 17:43:00,
2013-01-04 12:13:00,51.2,32.0,30.40,ENE,67,4.0,5.0,48,0.00,,,0.00,weatherlink.com 1.10,2013-01-04 18:13:00,
2013-01-04 12:28:00,52.4,31.0,30.40,North,5,1.0,5.0,45,0.00,,,0.00,weatherlink.com 1.10,2013-01-04 18:28:00,
2013-01-04 12:43:00,52.1,31.0,30.39,East,82,2.0,8.0,45,0.00,,,0.00,weatherlink.com 1.10,2013-01-04 18:43:00,
2013-01-04 12:59:00,53.2,32.0,30.39,ENE,75,0.0,6.0,45,0.00,,,0.00,weatherlink.com 1.10,2013-01-04 18:59:00,
2013-01-04 13:14:00,54.0,32.0,30.38,ENE,63,4.0,6.0,43,0.00,,,0.00,weatherlink.com 1.10,2013-01-04 19:14:00,
2013-01-04 13:29:00,54.3,32.0,30.37,NE,56,2.0,7.0,43,0.00,,,0.00,weatherlink.com 1.10,2013-01-04 19:29:00,
2013-01-04 13:44:00,54.5,32.0,30.36,East,86,5.0,6.0,43,0.00,,,0.00,weatherlink.com 1.10,2013-01-04 19:44:00,
2013-01-04 13:59:00,55.0,31.0,30.35,NE,39,2.0,10.0,40,0.00,,,0.00,weatherlink.com 1.10,2013-01-04 19:59:00,
2013-01-04 14:14:00,55.1,32.0,30.34,NNW,329,3.0,6.0,42,0.00,,,0.00,weatherlink.com 1.10,2013-01-04 20:14:00,
2013-01-04 14:29:00,54.6,31.0,30.35,WNW,302,0.0,4.0,40,0.00,,,0.00,weatherlink.com 1.10,2013-01-04 20:29:00,
2013-01-04 14:44:00,55.1,31.0,30.35,ENE,71,4.0,6.0,40,0.00,,,0.00,weatherlink.com 1.10,2013-01-04 20:44:00,
2013-01-04 14:59:00,55.7,31.0,30.35,ENE,63,5.0,6.0,39,0.00,,,0.00,weatherlink.com 1.10,2013-01-04 20:59:00,
2013-01-04 15:14:00,56.3,31.0,30.35,WNW,300,2.0,4.0,39,0.00,,,0.00,weatherlink.com 1.10,2013-01-04 21:14:00,
2013-01-04 15:44:00,55.3,33.0,30.35,NNE,13,0.0,5.0,43,0.00,,,0.00,weatherlink.com 1.10,2013-01-04 21:44:00,
2013-01-04 15:59:00,55.0,34.0,30.35,West,269,1.0,2.0,45,0.00,,,0.00,weatherlink.com 1.10,2013-01-04 21:59:00,
2013-01-04 16:14:00,54.7,34.0,30.35,East,80,0.0,2.0,46,0.00,,,0.00,weatherlink.com 1.10,2013-01-04 22:14:00,
2013-01-04 16:29:00,54.0,34.0,30.35,North,11,1.0,3.0,48,0.00,,,0.00,weatherlink.com 1.10,2013-01-04 22:29:00,
2013-01-04 16:44:00,52.9,36.0,30.36,WSW,257,0.0,2.0,53,0.00,,,0.00,weatherlink.com 1.10,2013-01-04 22:44:00,
2013-01-04 16:59:00,51.6,37.0,30.36,West,259,0.0,0.0,58,0.00,,,0.00,weatherlink.com 1.10,2013-01-04 22:59:00,
2013-01-04 17:14:00,50.7,38.0,30.36,West,260,0.0,0.0,63,0.00,,,0.00,weatherlink.com 1.10,2013-01-04 23:14:00,
2013-01-04 17:29:00,50.2,37.0,30.36,West,260,0.0,0.0,61,0.00,,,0.00,weatherlink.com 1.10,2013-01-04 23:29:00,
2013-01-04 17:44:00,49.9,38.0,30.37,West,260,0.0,0.0,63,0.00,,,0.00,weatherlink.com 1.10,2013-01-04 23:44:00,
2013-01-04 17:59:00,49.8,38.0,30.37,East,87,1.0,3.0,64,0.00,,,0.00,weatherlink.com 1.10,2013-01-04 23:59:00,
2013-01-04 18:14:00,49.9,37.0,30.37,ENE,72,1.0,5.0,62,0.00,,,0.00,weatherlink.com 1.10,2013-01-05 00:14:00,
2013-01-04 18:29:00,49.2,36.0,30.38,NW,315,0.0,3.0,61,0.00,,,0.00,weatherlink.com 1.10,2013-01-05 00:29:00,
2013-01-04 18:44:00,48.4,37.0,30.38,ENE,65,0.0,2.0,65,0.00,,,0.00,weatherlink.com 1.10,2013-01-05 00:44:00,
2013-01-04 18:59:00,47.2,37.0,30.39,NNW,331,0.0,2.0,67,0.00,,,0.00,weatherlink.com 1.10,2013-01-05 00:59:00,
2013-01-04 19:14:00,46.1,36.0,30.39,West,266,0.0,1.0,68,0.00,,,0.00,weatherlink.com 1.10,2013-01-05 01:14:00,
2013-01-04 19:29:00,45.0,38.0,30.39,West,266,0.0,0.0,75,0.00,,,0.00,weatherlink.com 1.10,2013-01-05 01:29:00,
2013-01-04 19:44:00,44.5,37.0,30.40,NW,316,0.0,0.0,76,0.00,,,0.00,weatherlink.com 1.10,2013-01-05 01:44:00,
2013-01-04 19:59:00,43.7,36.0,30.39,NW,316,0.0,0.0,74,0.00,,,0.00,weatherlink.com 1.10,2013-01-05 01:59:00,
2013-01-04 20:14:00,42.8,35.0,30.39,NW,316,0.0,0.0,75,0.00,,,0.00,weatherlink.com 1.10,2013-01-05 02:14:00,
2013-01-04 20:29:00,43.3,39.0,30.40,NW,316,0.0,0.0,83,0.00,,,0.00,weatherlink.com 1.10,2013-01-05 02:29:00,
2013-01-04 20:44:00,43.7,39.0,30.39,NW,318,0.0,0.0,83,0.00,,,0.00,weatherlink.com 1.10,2013-01-05 02:44:00,
2013-01-04 20:59:00,43.6,38.0,30.39,WNW,283,0.0,0.0,80,0.00,,,0.00,weatherlink.com 1.10,2013-01-05 02:59:00,
2013-01-04 21:14:00,44.2,39.0,30.39,NE,37,0.0,0.0,81,0.00,,,0.00,weatherlink.com 1.10,2013-01-05 03:14:00,
2013-01-04 21:29:00,44.1,39.0,30.38,NE,37,0.0,0.0,81,0.00,,,0.00,weatherlink.com 1.10,2013-01-05 03:29:00,
2013-01-04 21:44:00,43.5,38.0,30.38,NE,49,0.0,0.0,80,0.00,,,0.00,weatherlink.com 1.10,2013-01-05 03:44:00,
2013-01-04 21:59:00,42.6,37.0,30.38,NE,50,0.0,0.0,81,0.00,,,0.00,weatherlink.com 1.10,2013-01-05 03:59:00,
2013-01-04 22:14:00,41.8,37.0,30.38,NNE,13,0.0,0.0,82,0.00,,,0.00,weatherlink.com 1.10,2013-01-05 04:14:00,
2013-01-04 22:29:00,41.6,37.0,30.38,WNW,294,0.0,0.0,82,0.00,,,0.00,weatherlink.com 1.10,2013-01-05 04:29:00,
2013-01-04 22:44:00,41.6,37.0,30.38,WNW,300,0.0,0.0,82,0.00,,,0.00,weatherlink.com 1.10,2013-01-05 04:44:00,
2013-01-04 22:59:00,41.2,36.0,30.36,East,79,0.0,1.0,82,0.00,,,0.00,weatherlink.com 1.10,2013-01-05 04:59:00,
2013-01-04 23:16:00,40.6,36.0,30.36,ENE,67,0.0,1.0,84,0.00,,,0.00,weatherlink.com 1.10,2013-01-05 05:16:00,
2013-01-04 23:29:00,40.5,36.0,30.36,East,79,0.0,1.0,83,0.00,,,0.00,weatherlink.com 1.10,2013-01-05 05:29:00,
2013-01-04 23:44:00,40.4,36.0,30.36,WNW,294,0.0,1.0,85,0.00,,,0.00,weatherlink.com 1.10,2013-01-05 05:44:00,